User: anonymous   Login
Location: Unspecified
(0.0000°N, 0.0000°E)
Time: 09:19:33
(UTC+00:00)
Language:

AISSAT 1 - Orbit

View from above orbital plane
View from above orbital plane
View from above satellite
View from above satellite

Ground track
Ground track

The orbit data is extracted from the following two-line orbital elements,

1 36797U 10035C   18018.73865824  .00000115  00000-0  19659-4 0  9993
2 36797  98.0580 140.1220 0011511  20.2323 339.9346 14.85973672407319
Epoch (UTC): 18 January 2018 17:43:40
Eccentricity: 0.0011511
inclination: 98.0580°
perigee height: 602 km
apogee height: 618 km
right ascension of ascending node: 140.1220°
argument of perigee: 20.2323°
revolutions per day: 14.85973672
mean anomaly at epoch: 339.9346°
orbit number at epoch: 40731

The dashed part of the orbit path shows where the satellite is in the earth's shadow,  

DLR